Time,TemperatureF,DewpointF,PressureIn,WindDirection,WindDirectionDegrees,WindSpeedMPH,WindSpeedGustMPH,Humidity,HourlyPrecipIn,Conditions,Clouds,dailyrainin,SoftwareType,DateUTC
2013-10-21 00:02:00,41.0,14.6,30.04,SE,135,0.0,0.0,34,0.00,,,0.00,WUHU21623XXSP,2013-10-21 07:02:00,
2013-10-21 00:10:00,40.3,14.6,30.04,ENE,67,0.0,0.0,35,0.00,,,0.00,WUHU21623XXSP,2013-10-21 07:10:00,
2013-10-21 00:15:00,39.9,14.3,30.04,SSE,157,0.0,0.0,35,0.00,,,0.00,WUHU21623XXSP,2013-10-21 07:15:00,
2013-10-21 00:29:00,39.2,14.3,30.04,ENE,67,0.0,0.0,36,0.00,,,0.00,WUHU21623XXSP,2013-10-21 07:29:00,
2013-10-21 00:38:00,38.8,14.0,30.04,ENE,67,0.0,0.0,36,0.00,,,0.00,WUHU21623XXSP,2013-10-21 07:38:00,
2013-10-21 00:44:00,38.5,14.3,30.05,ENE,67,0.0,0.0,37,0.00,,,0.00,WUHU21623XXSP,2013-10-21 07:44:00,
2013-10-21 00:49:00,38.3,13.5,30.05,NE,45,0.0,0.0,36,0.00,,,0.00,WUHU21623XXSP,2013-10-21 07:49:00,
2013-10-21 00:57:00,37.9,13.8,30.04,NE,45,0.0,0.0,37,0.00,,,0.00,WUHU21623XXSP,2013-10-21 07:57:00,
2013-10-21 01:02:00,37.9,13.8,30.04,NE,45,0.0,0.0,37,0.00,,,0.00,WUHU21623XXSP,2013-10-21 08:02:00,
2013-10-21 01:07:00,37.6,14.3,30.05,NE,45,0.0,0.0,38,0.00,,,0.00,WUHU21623XXSP,2013-10-21 08:07:00,
2013-10-21 01:17:00,37.2,13.8,30.05,East,90,0.0,0.0,38,0.00,,,0.00,WUHU21623XXSP,2013-10-21 08:17:00,
2013-10-21 01:21:00,37.2,13.8,30.04,NE,45,0.0,0.0,38,0.00,,,0.00,WUHU21623XXSP,2013-10-21 08:21:00,
2013-10-21 01:26:00,37.0,13.6,30.05,SSE,157,0.0,0.0,38,0.00,,,0.00,WUHU21623XXSP,2013-10-21 08:26:00,
2013-10-21 01:31:00,36.7,13.3,30.05,SSE,157,0.0,0.0,38,0.00,,,0.00,WUHU21623XXSP,2013-10-21 08:31:00,
2013-10-21 01:37:00,36.7,13.3,30.05,East,90,0.0,0.0,38,0.00,,,0.00,WUHU21623XXSP,2013-10-21 08:37:00,
2013-10-21 01:42:00,36.5,13.2,30.05,East,90,0.0,0.0,38,0.00,,,0.00,WUHU21623XXSP,2013-10-21 08:42:00,
2013-10-21 01:47:00,36.3,13.6,30.05,NE,45,0.0,0.0,39,0.00,,,0.00,WUHU21623XXSP,2013-10-21 08:47:00,
2013-10-21 01:52:00,36.3,13.6,30.05,NE,45,0.0,0.0,39,0.00,,,0.00,WUHU21623XXSP,2013-10-21 08:52:00,
2013-10-21 01:57:00,36.3,13.6,30.05,NE,45,0.0,0.0,39,0.00,,,0.00,WUHU21623XXSP,2013-10-21 08:57:00,
2013-10-21 02:02:00,36.1,13.5,30.05,NE,45,0.0,0.0,39,0.00,,,0.00,WUHU21623XXSP,2013-10-21 09:02:00,
2013-10-21 02:07:00,36.0,13.3,30.06,NE,45,0.0,0.0,39,0.00,,,0.00,WUHU21623XXSP,2013-10-21 09:07:00,
2013-10-21 02:14:00,35.8,13.2,30.05,NE,45,0.0,0.0,39,0.00,,,0.00,WUHU21623XXSP,2013-10-21 09:14:00,
2013-10-21 02:19:00,35.8,13.2,30.05,NE,45,0.0,0.0,40,0.00,,,0.00,WUHU21623XXSP,2013-10-21 09:19:00,
2013-10-21 02:25:00,35.4,13.5,30.05,NNE,22,0.0,0.0,40,0.00,,,0.00,WUHU21623XXSP,2013-10-21 09:25:00,
2013-10-21 02:30:00,35.4,13.5,30.05,North,0,0.0,0.0,40,0.00,,,0.00,WUHU21623XXSP,2013-10-21 09:30:00,
2013-10-21 02:36:00,35.2,13.3,30.05,North,0,0.0,0.0,40,0.00,,,0.00,WUHU21623XXSP,2013-10-21 09:36:00,
2013-10-21 02:41:00,35.2,13.8,30.05,North,0,0.0,0.0,41,0.00,,,0.00,WUHU21623XXSP,2013-10-21 09:41:00,
2013-10-21 02:51:00,34.9,14.0,30.05,SSE,157,0.0,0.0,42,0.00,,,0.00,WUHU21623XXSP,2013-10-21 09:51:00,
2013-10-21 02:56:00,34.7,13.9,30.05,SSE,157,0.0,0.0,42,0.00,,,0.00,WUHU21623XXSP,2013-10-21 09:56:00,
2013-10-21 03:01:00,34.7,13.9,30.05,SSE,157,0.0,0.0,42,0.00,,,0.00,WUHU21623XXSP,2013-10-21 10:01:00,
2013-10-21 03:08:00,34.2,13.4,30.05,SSE,157,0.0,0.0,42,0.00,,,0.00,WUHU21623XXSP,2013-10-21 10:08:00,
2013-10-21 03:13:00,34.0,13.2,30.05,SSE,157,0.0,0.0,42,0.00,,,0.00,WUHU21623XXSP,2013-10-21 10:13:00,
2013-10-21 03:18:00,33.8,13.0,30.05,SSE,157,0.0,0.0,42,0.00,,,0.00,WUHU21623XXSP,2013-10-21 10:18:00,
2013-10-21 03:23:00,33.6,12.9,30.05,ESE,112,0.0,0.0,42,0.00,,,0.00,WUHU21623XXSP,2013-10-21 10:23:00,
2013-10-21 03:28:00,33.6,12.9,30.05,East,90,0.0,0.0,42,0.00,,,0.00,WUHU21623XXSP,2013-10-21 10:28:00,
2013-10-21 03:33:00,33.1,12.5,30.05,East,90,0.0,0.0,42,0.00,,,0.00,WUHU21623XXSP,2013-10-21 10:33:00,
2013-10-21 03:42:00,32.9,12.4,30.05,ESE,112,0.0,0.0,42,0.00,,,0.00,WUHU21623XXSP,2013-10-21 10:42:00,
2013-10-21 03:47:00,32.9,12.2,30.05,ESE,112,0.0,0.0,42,0.00,,,0.00,WUHU21623XXSP,2013-10-21 10:47:00,
2013-10-21 03:53:00,32.7,12.6,30.05,ESE,112,0.0,0.0,43,0.00,,,0.00,WUHU21623XXSP,2013-10-21 10:53:00,
2013-10-21 03:58:00,32.7,12.1,30.05,ESE,112,0.0,0.0,42,0.00,,,0.00,WUHU21623XXSP,2013-10-21 10:58:00,
2013-10-21 04:03:00,32.5,12.4,30.05,ENE,67,0.0,0.0,43,0.00,,,0.00,WUHU21623XXSP,2013-10-21 11:03:00,
2013-10-21 04:08:00,32.5,12.4,30.05,ENE,67,0.0,0.0,43,0.00,,,0.00,WUHU21623XXSP,2013-10-21 11:08:00,
2013-10-21 04:15:00,32.4,11.7,30.05,NW,315,0.0,0.0,42,0.00,,,0.00,WUHU21623XXSP,2013-10-21 11:15:00,
2013-10-21 04:23:00,32.2,11.6,30.05,SSW,202,0.0,0.0,42,0.00,,,0.00,WUHU21623XXSP,2013-10-21 11:23:00,
2013-10-21 04:28:00,32.2,11.6,30.05,West,270,0.0,0.0,42,0.00,,,0.00,WUHU21623XXSP,2013-10-21 11:28:00,
2013-10-21 04:33:00,32.2,11.9,30.05,West,270,0.0,0.0,43,0.00,,,0.00,WUHU21623XXSP,2013-10-21 11:33:00,
2013-10-21 04:38:00,31.8,11.8,30.05,NNW,337,0.0,0.0,43,0.00,,,0.00,WUHU21623XXSP,2013-10-21 11:38:00,
2013-10-21 04:43:00,31.8,11.8,30.05,NNW,337,0.0,0.0,43,0.00,,,0.00,WUHU21623XXSP,2013-10-21 11:43:00,
2013-10-21 04:53:00,31.6,12.1,30.05,SSE,157,0.0,0.0,44,0.00,,,0.00,WUHU21623XXSP,2013-10-21 11:53:00,
2013-10-21 04:58:00,31.6,12.6,30.06,SSE,157,0.0,0.0,45,0.00,,,0.00,WUHU21623XXSP,2013-10-21 11:58:00,
2013-10-21 05:03:00,31.3,12.3,30.06,SSE,157,0.0,0.0,45,0.00,,,0.00,WUHU21623XXSP,2013-10-21 12:03:00,
2013-10-21 05:08:00,31.3,12.3,30.05,NE,45,0.0,0.0,45,0.00,,,0.00,WUHU21623XXSP,2013-10-21 12:08:00,
2013-10-21 05:13:00,31.1,12.1,30.05,NE,45,0.0,0.0,45,0.00,,,0.00,WUHU21623XXSP,2013-10-21 12:13:00,
2013-10-21 05:18:00,30.9,12.5,30.05,NE,45,0.0,0.0,46,0.00,,,0.00,WUHU21623XXSP,2013-10-21 12:18:00,
2013-10-21 05:23:00,30.9,12.5,30.05,ENE,67,0.0,0.0,46,0.00,,,0.00,WUHU21623XXSP,2013-10-21 12:23:00,
2013-10-21 05:31:00,30.7,12.8,30.05,ENE,67,0.0,0.0,47,0.00,,,0.00,WUHU21623XXSP,2013-10-21 12:31:00,
2013-10-21 05:36:00,30.7,12.8,30.06,SSE,157,0.0,0.0,47,0.00,,,0.00,WUHU21623XXSP,2013-10-21 12:36:00,
2013-10-21 05:44:00,30.6,12.6,30.06,SSE,157,0.0,0.0,47,0.00,,,0.00,WUHU21623XXSP,2013-10-21 12:44:00,
2013-10-21 05:51:00,30.6,12.6,30.06,ENE,67,0.0,0.0,47,0.00,,,0.00,WUHU21623XXSP,2013-10-21 12:51:00,
2013-10-21 05:56:00,30.4,12.5,30.06,SSE,157,0.0,0.0,47,0.00,,,0.00,WUHU21623XXSP,2013-10-21 12:56:00,
2013-10-21 06:01:00,30.4,12.5,30.06,SE,135,0.0,0.0,47,0.00,,,0.00,WUHU21623XXSP,2013-10-21 13:01:00,
2013-10-21 06:10:00,30.0,12.1,30.06,NE,45,0.0,0.0,47,0.00,,,0.00,WUHU21623XXSP,2013-10-21 13:10:00,
2013-10-21 06:16:00,30.0,12.1,30.06,SW,225,0.0,0.0,47,0.00,,,0.00,WUHU21623XXSP,2013-10-21 13:16:00,
2013-10-21 06:21:00,30.0,12.1,30.06,SW,225,0.0,0.0,47,0.00,,,0.00,WUHU21623XXSP,2013-10-21 13:21:00,
2013-10-21 06:26:00,30.0,12.1,30.06,SW,225,0.0,0.0,47,0.00,,,0.00,WUHU21623XXSP,2013-10-21 13:26:00,
2013-10-21 06:31:00,29.8,12.0,30.06,SW,225,0.0,0.0,47,0.00,,,0.00,WUHU21623XXSP,2013-10-21 13:31:00,
2013-10-21 06:36:00,29.8,12.0,30.06,SW,225,0.0,0.0,47,0.00,,,0.00,WUHU21623XXSP,2013-10-21 13:36:00,
2013-10-21 06:44:00,29.7,11.8,30.06,SW,225,0.0,0.0,47,0.00,,,0.00,WUHU21623XXSP,2013-10-21 13:44:00,
2013-10-21 06:49:00,29.5,11.7,30.07,SW,225,0.0,0.0,47,0.00,,,0.00,WUHU21623XXSP,2013-10-21 13:49:00,
2013-10-21 06:55:00,29.5,11.7,30.07,West,270,0.0,0.0,47,0.00,,,0.00,WUHU21623XXSP,2013-10-21 13:55:00,
2013-10-21 07:00:00,29.5,12.2,30.06,West,270,0.0,0.0,48,0.00,,,0.00,WUHU21623XXSP,2013-10-21 14:00:00,
2013-10-21 07:05:00,29.5,12.2,30.06,West,270,0.0,0.0,48,0.00,,,0.00,WUHU21623XXSP,2013-10-21 14:05:00,
2013-10-21 07:10:00,29.1,11.8,30.06,West,270,0.0,0.0,48,0.00,,,0.00,WUHU21623XXSP,2013-10-21 14:10:00,
2013-10-21 07:15:00,29.1,11.8,30.07,West,270,0.0,0.0,48,0.00,,,0.00,WUHU21623XXSP,2013-10-21 14:15:00,
2013-10-21 07:20:00,29.1,11.8,30.07,West,270,0.0,0.0,48,0.00,,,0.00,WUHU21623XXSP,2013-10-21 14:20:00,
2013-10-21 07:25:00,28.9,11.7,30.07,West,270,0.0,0.0,48,0.00,,,0.00,WUHU21623XXSP,2013-10-21 14:25:00,
2013-10-21 07:30:00,28.9,11.7,30.07,NW,315,0.0,0.0,48,0.00,,,0.00,WUHU21623XXSP,2013-10-21 14:30:00,
2013-10-21 07:35:00,28.8,11.5,30.07,NW,315,0.0,0.0,48,0.00,,,0.00,WUHU21623XXSP,2013-10-21 14:35:00,
2013-10-21 07:40:00,28.8,11.5,30.07,NW,315,0.0,0.0,48,0.00,,,0.00,WUHU21623XXSP,2013-10-21 14:40:00,
2013-10-21 07:45:00,28.6,11.9,30.07,NW,315,0.0,0.0,49,0.00,,,0.00,WUHU21623XXSP,2013-10-21 14:45:00,
2013-10-21 07:51:00,28.6,11.9,30.07,South,180,0.0,0.0,49,0.00,,,0.00,WUHU21623XXSP,2013-10-21 14:51:00,
2013-10-21 07:56:00,28.6,11.9,30.07,South,180,0.0,0.0,49,0.00,,,0.00,WUHU21623XXSP,2013-10-21 14:56:00,
2013-10-21 08:01:00,28.6,11.9,30.08,NE,45,0.0,0.0,49,0.00,,,0.00,WUHU21623XXSP,2013-10-21 15:01:00,
2013-10-21 08:06:00,28.8,12.0,30.08,NE,45,0.0,0.0,49,0.00,,,0.00,WUHU21623XXSP,2013-10-21 15:06:00,
2013-10-21 08:25:00,29.7,13.3,30.08,West,270,0.0,0.0,50,0.00,,,0.00,WUHU21623XXSP,2013-10-21 15:25:00,
2013-10-21 08:30:00,30.0,13.7,30.08,WNW,292,0.0,0.0,50,0.00,,,0.00,WUHU21623XXSP,2013-10-21 15:30:00,
2013-10-21 08:35:00,30.6,14.6,30.08,WNW,292,0.0,0.0,51,0.00,,,0.00,WUHU21623XXSP,2013-10-21 15:35:00,
2013-10-21 08:40:00,31.5,15.8,30.08,WNW,292,0.0,0.0,52,0.00,,,0.00,WUHU21623XXSP,2013-10-21 15:40:00,
2013-10-21 08:45:00,33.1,17.4,30.08,NNW,337,0.0,0.0,53,0.00,,,0.00,WUHU21623XXSP,2013-10-21 15:45:00,
2013-10-21 08:50:00,33.6,18.6,30.08,WNW,292,0.0,0.0,54,0.00,,,0.00,WUHU21623XXSP,2013-10-21 15:50:00,
2013-10-21 08:55:00,34.7,19.7,30.08,WNW,292,0.0,0.0,54,0.00,,,0.00,WUHU21623XXSP,2013-10-21 15:55:00,
2013-10-21 09:00:00,36.1,20.6,30.09,West,270,0.0,0.0,53,0.00,,,0.00,WUHU21623XXSP,2013-10-21 16:00:00,
2013-10-21 09:05:00,36.9,20.9,30.09,West,270,0.0,0.0,52,0.00,,,0.00,WUHU21623XXSP,2013-10-21 16:05:00,
2013-10-21 09:10:00,37.6,21.5,30.08,WNW,292,0.0,0.0,52,0.00,,,0.00,WUHU21623XXSP,2013-10-21 16:10:00,
2013-10-21 09:15:00,38.1,22.0,30.08,WSW,247,0.0,0.0,52,0.00,,,0.00,WUHU21623XXSP,2013-10-21 16:15:00,
2013-10-21 09:27:00,41.2,23.4,30.08,West,270,0.0,0.0,49,0.00,,,0.00,WUHU21623XXSP,2013-10-21 16:27:00,
2013-10-21 09:32:00,41.9,23.6,30.08,West,270,0.0,0.0,48,0.00,,,0.00,WUHU21623XXSP,2013-10-21 16:32:00,
2013-10-21 09:37:00,42.4,23.5,30.08,North,0,0.0,0.0,47,0.00,,,0.00,WUHU21623XXSP,2013-10-21 16:37:00,
2013-10-21 09:42:00,42.6,23.7,30.08,NNW,337,0.0,0.0,46,0.00,,,0.00,WUHU21623XXSP,2013-10-21 16:42:00,
2013-10-21 09:47:00,42.8,23.4,30.08,NNW,337,0.0,0.0,46,0.00,,,0.00,WUHU21623XXSP,2013-10-21 16:47:00,
2013-10-21 09:53:00,43.0,23.0,30.08,West,270,0.0,0.0,45,0.00,,,0.00,WUHU21623XXSP,2013-10-21 16:53:00,
2013-10-21 09:59:00,43.0,22.4,30.08,WNW,292,0.0,0.0,44,0.00,,,0.00,WUHU21623XXSP,2013-10-21 16:59:00,
2013-10-21 10:04:00,43.2,22.6,30.08,WSW,247,0.0,0.0,44,0.00,,,0.00,WUHU21623XXSP,2013-10-21 17:04:00,
2013-10-21 10:09:00,43.3,22.8,30.08,SW,225,0.0,0.0,44,0.00,,,0.00,WUHU21623XXSP,2013-10-21 17:09:00,
2013-10-21 10:14:00,43.5,22.9,30.07,West,270,0.0,0.0,44,0.00,,,0.00,WUHU21623XXSP,2013-10-21 17:14:00,
2013-10-21 10:19:00,43.9,22.7,30.07,WSW,247,0.0,0.0,43,0.00,,,0.00,WUHU21623XXSP,2013-10-21 17:19:00,
2013-10-21 10:24:00,44.2,23.0,30.07,NW,315,0.0,0.0,43,0.00,,,0.00,WUHU21623XXSP,2013-10-21 17:24:00,
2013-10-21 10:29:00,44.6,23.4,30.07,NNW,337,0.0,0.0,43,0.00,,,0.00,WUHU21623XXSP,2013-10-21 17:29:00,
2013-10-21 10:34:00,45.0,23.1,30.07,West,270,0.0,0.0,42,0.00,,,0.00,WUHU21623XXSP,2013-10-21 17:34:00,
2013-10-21 10:42:00,45.9,23.4,30.07,WNW,292,0.0,0.0,41,0.00,,,0.00,WUHU21623XXSP,2013-10-21 17:42:00,
2013-10-21 10:47:00,46.2,24.3,30.06,WNW,292,0.0,0.0,42,0.00,,,0.00,WUHU21623XXSP,2013-10-21 17:47:00,
2013-10-21 10:52:00,46.9,24.4,30.06,NNE,22,0.0,0.0,41,0.00,,,0.00,WUHU21623XXSP,2013-10-21 17:52:00,
2013-10-21 10:57:00,47.5,24.9,30.06,SSW,202,0.0,0.0,41,0.00,,,0.00,WUHU21623XXSP,2013-10-21 17:57:00,
2013-10-21 11:02:00,48.2,25.4,30.06,WNW,292,0.0,0.0,41,0.00,,,0.00,WUHU21623XXSP,2013-10-21 18:02:00,
2013-10-21 11:07:00,48.7,25.3,30.06,South,180,0.0,0.0,40,0.00,,,0.00,WUHU21623XXSP,2013-10-21 18:07:00,
2013-10-21 11:12:00,49.8,26.0,30.06,WSW,247,0.0,0.0,40,0.00,,,0.00,WUHU21623XXSP,2013-10-21 18:12:00,
2013-10-21 11:20:00,50.7,27.2,30.06,South,180,0.0,0.0,40,0.00,,,0.00,WUHU21623XXSP,2013-10-21 18:20:00,
2013-10-21 11:25:00,51.3,26.7,30.06,WNW,292,3.8,3.8,39,0.00,,,0.00,WUHU21623XXSP,2013-10-21 18:25:00,
2013-10-21 11:31:00,52.2,26.2,30.05,West,270,0.0,3.8,38,0.00,,,0.00,WUHU21623XXSP,2013-10-21 18:31:00,
2013-10-21 11:36:00,52.3,27.3,30.05,WNW,292,0.0,0.0,38,0.00,,,0.00,WUHU21623XXSP,2013-10-21 18:36:00,
2013-10-21 11:44:00,53.4,27.6,30.05,WSW,247,0.0,0.0,37,0.00,,,0.00,WUHU21623XXSP,2013-10-21 18:44:00,
2013-10-21 11:49:00,54.1,27.2,30.05,NNW,337,0.0,0.0,35,0.00,,,0.00,WUHU21623XXSP,2013-10-21 18:49:00,
2013-10-21 11:54:00,55.2,28.2,30.05,WNW,292,0.0,0.0,36,0.00,,,0.00,WUHU21623XXSP,2013-10-21 18:54:00,
2013-10-21 11:59:00,55.8,28.3,30.05,SW,225,0.0,0.0,35,0.00,,,0.00,WUHU21623XXSP,2013-10-21 18:59:00,
2013-10-21 12:04:00,57.4,29.0,30.05,SW,225,0.0,0.0,34,0.00,,,0.00,WUHU21623XXSP,2013-10-21 19:04:00,
2013-10-21 12:09:00,58.3,29.1,30.04,SSW,202,0.0,0.0,33,0.00,,,0.00,WUHU21623XXSP,2013-10-21 19:09:00,
2013-10-21 12:14:00,60.1,29.1,30.04,NW,315,4.5,4.5,31,0.00,,,0.00,WUHU21623XXSP,2013-10-21 19:14:00,
2013-10-21 12:19:00,60.6,29.0,30.04,West,270,0.0,4.5,30,0.00,,,0.00,WUHU21623XXSP,2013-10-21 19:19:00,
2013-10-21 12:24:00,61.9,29.1,30.04,North,0,0.0,0.0,29,0.00,,,0.00,WUHU21623XXSP,2013-10-21 19:24:00,
2013-10-21 12:29:00,62.4,28.6,30.04,NNE,22,2.9,2.9,28,0.00,,,0.00,WUHU21623XXSP,2013-10-21 19:29:00,
2013-10-21 12:34:00,63.1,29.3,30.04,WNW,292,0.9,2.9,28,0.00,,,0.00,WUHU21623XXSP,2013-10-21 19:34:00,
2013-10-21 12:39:00,63.7,28.8,30.04,WNW,292,4.7,4.7,27,0.00,,,0.00,WUHU21623XXSP,2013-10-21 19:39:00,
2013-10-21 12:44:00,64.2,28.2,30.03,NW,315,5.4,5.4,26,0.00,,,0.00,WUHU21623XXSP,2013-10-21 19:44:00,
2013-10-21 12:50:00,64.8,28.7,30.03,NW,315,0.0,5.4,26,0.00,,,0.00,WUHU21623XXSP,2013-10-21 19:50:00,
2013-10-21 12:55:00,65.1,28.0,30.03,NW,315,5.1,5.1,25,0.00,,,0.00,WUHU21623XXSP,2013-10-21 19:55:00,
2013-10-21 13:00:00,65.5,28.3,30.03,West,270,2.9,5.1,25,0.00,,,0.00,WUHU21623XXSP,2013-10-21 20:00:00,
2013-10-21 13:05:00,66.0,27.8,30.02,North,0,4.7,5.8,24,0.00,,,0.00,WUHU21623XXSP,2013-10-21 20:05:00,
2013-10-21 13:10:00,66.4,27.8,30.02,North,0,4.7,5.8,24,0.00,,,0.00,WUHU21623XXSP,2013-10-21 20:10:00,
2013-10-21 13:16:00,66.9,28.4,30.02,NNW,337,4.7,4.7,24,0.00,,,0.00,WUHU21623XXSP,2013-10-21 20:16:00,
2013-10-21 13:21:00,66.9,27.5,30.02,WNW,292,6.5,6.5,23,0.00,,,0.00,WUHU21623XXSP,2013-10-21 20:21:00,
2013-10-21 13:26:00,66.9,27.5,30.02,NW,315,0.0,6.5,23,0.00,,,0.00,WUHU21623XXSP,2013-10-21 20:26:00,
2013-10-21 13:31:00,66.9,27.5,30.01,NNW,337,2.9,2.9,23,0.00,,,0.00,WUHU21623XXSP,2013-10-21 20:31:00,
2013-10-21 13:36:00,67.3,27.9,30.01,WNW,292,3.6,3.6,23,0.00,,,0.00,WUHU21623XXSP,2013-10-21 20:36:00,
2013-10-21 13:41:00,67.5,28.0,30.01,North,0,5.6,5.6,23,0.00,,,0.00,WUHU21623XXSP,2013-10-21 20:41:00,
2013-10-21 13:46:00,67.8,27.3,30.01,North,0,3.6,5.6,22,0.00,,,0.00,WUHU21623XXSP,2013-10-21 20:46:00,
2013-10-21 13:56:00,68.5,27.9,30.00,NW,315,7.8,7.8,22,0.00,,,0.00,WUHU21623XXSP,2013-10-21 20:56:00,
2013-10-21 14:01:00,68.7,28.1,30.00,West,270,3.8,7.8,22,0.00,,,0.00,WUHU21623XXSP,2013-10-21 21:01:00,
2013-10-21 14:09:00,68.7,28.1,30.00,WSW,247,4.5,4.5,22,0.00,,,0.00,WUHU21623XXSP,2013-10-21 21:09:00,
2013-10-21 14:14:00,68.9,28.2,30.00,NW,315,7.6,7.6,22,0.00,,,0.00,WUHU21623XXSP,2013-10-21 21:14:00,
2013-10-21 14:22:00,69.3,28.5,29.99,NNE,22,2.0,7.6,22,0.00,,,0.00,WUHU21623XXSP,2013-10-21 21:22:00,
2013-10-21 14:27:00,69.6,28.8,29.99,NNE,22,0.7,2.0,22,0.00,,,0.00,WUHU21623XXSP,2013-10-21 21:27:00,
2013-10-21 14:32:00,69.8,28.0,29.99,NW,315,2.0,2.0,21,0.00,,,0.00,WUHU21623XXSP,2013-10-21 21:32:00,
2013-10-21 14:37:00,70.2,28.3,29.99,NE,45,0.0,2.0,21,0.00,,,0.00,WUHU21623XXSP,2013-10-21 21:37:00,
2013-10-21 14:42:00,70.5,28.5,29.99,WNW,292,7.6,7.6,21,0.00,,,0.00,WUHU21623XXSP,2013-10-21 21:42:00,
2013-10-21 14:50:00,70.9,28.8,29.98,NE,45,0.0,0.0,21,0.00,,,0.00,WUHU21623XXSP,2013-10-21 21:50:00,
2013-10-21 14:55:00,70.9,28.8,29.98,WNW,292,2.0,2.0,21,0.00,,,0.00,WUHU21623XXSP,2013-10-21 21:55:00,
2013-10-21 15:00:00,70.9,28.8,29.99,NNW,337,4.0,4.0,21,0.00,,,0.00,WUHU21623XXSP,2013-10-21 22:00:00,
2013-10-21 15:05:00,70.9,27.8,29.99,NW,315,6.3,6.3,20,0.00,,,0.00,WUHU21623XXSP,2013-10-21 22:05:00,
2013-10-21 15:10:00,70.9,27.8,29.98,NW,315,5.8,6.3,20,0.00,,,0.00,WUHU21623XXSP,2013-10-21 22:10:00,
2013-10-21 15:15:00,70.7,26.1,29.98,NNW,337,5.4,5.8,19,0.00,,,0.00,WUHU21623XXSP,2013-10-21 22:15:00,
2013-10-21 15:20:00,70.5,27.5,29.99,WNW,292,0.0,5.4,20,0.00,,,0.00,WUHU21623XXSP,2013-10-21 22:20:00,
2013-10-21 15:25:00,70.5,25.9,29.99,NNW,337,1.6,5.4,19,0.00,,,0.00,WUHU21623XXSP,2013-10-21 22:25:00,
2013-10-21 15:31:00,70.3,25.8,29.98,North,0,2.5,2.5,19,0.00,,,0.00,WUHU21623XXSP,2013-10-21 22:31:00,
2013-10-21 15:36:00,70.2,25.6,29.98,West,270,0.0,2.5,21,0.00,,,0.00,WUHU21623XXSP,2013-10-21 22:36:00,
2013-10-21 15:41:00,70.0,28.3,29.98,WNW,292,0.0,3.8,20,0.00,,,0.00,WUHU21623XXSP,2013-10-21 22:41:00,
2013-10-21 15:46:00,70.0,27.1,29.99,WNW,292,2.7,3.8,19,0.00,,,0.00,WUHU21623XXSP,2013-10-21 22:46:00,
2013-10-21 15:51:00,70.0,27.1,29.99,WNW,292,0.0,2.7,20,0.00,,,0.00,WUHU21623XXSP,2013-10-21 22:51:00,
2013-10-21 15:56:00,69.6,25.2,29.98,NW,315,1.6,1.6,19,0.00,,,0.00,WUHU21623XXSP,2013-10-21 22:56:00,
2013-10-21 16:01:00,69.6,25.2,29.98,NW,315,1.6,1.6,19,0.00,,,0.00,WUHU21623XXSP,2013-10-21 23:01:00,
2013-10-21 16:07:00,69.4,25.1,29.99,West,270,0.0,1.6,19,0.00,,,0.00,WUHU21623XXSP,2013-10-21 23:07:00,
2013-10-21 16:16:00,69.1,24.8,29.98,WNW,292,1.8,1.8,19,0.00,,,0.00,WUHU21623XXSP,2013-10-21 23:16:00,
2013-10-21 16:22:00,68.9,24.6,29.98,NW,315,0.0,1.8,19,0.00,,,0.00,WUHU21623XXSP,2013-10-21 23:22:00,
2013-10-21 16:28:00,68.7,24.5,29.99,North,0,1.3,1.3,19,0.00,,,0.00,WUHU21623XXSP,2013-10-21 23:28:00,
2013-10-21 16:33:00,68.7,24.5,29.99,NE,45,2.9,2.9,19,0.00,,,0.00,WUHU21623XXSP,2013-10-21 23:33:00,
2013-10-21 16:39:00,68.4,24.2,29.98,WNW,292,3.8,3.8,19,0.00,,,0.00,WUHU21623XXSP,2013-10-21 23:39:00,
2013-10-21 16:46:00,68.2,24.0,29.98,WSW,247,0.0,3.8,19,0.00,,,0.00,WUHU21623XXSP,2013-10-21 23:46:00,
2013-10-21 16:51:00,67.8,23.8,29.98,NNW,337,0.0,0.0,19,0.00,,,0.00,WUHU21623XXSP,2013-10-21 23:51:00,
2013-10-21 17:05:00,67.3,24.9,29.98,North,0,1.3,1.3,20,0.00,,,0.00,WUHU21623XXSP,2013-10-22 00:05:00,
2013-10-21 17:10:00,67.3,24.9,29.98,NW,315,3.1,3.1,20,0.00,,,0.00,WUHU21623XXSP,2013-10-22 00:10:00,
2013-10-21 17:15:00,67.1,24.7,29.98,WNW,292,0.0,3.1,20,0.00,,,0.00,WUHU21623XXSP,2013-10-22 00:15:00,
2013-10-21 17:20:00,66.9,24.5,29.98,NW,315,1.1,1.1,20,0.00,,,0.00,WUHU21623XXSP,2013-10-22 00:20:00,
2013-10-21 17:25:00,66.9,24.5,29.98,NNW,337,0.7,1.1,20,0.00,,,0.00,WUHU21623XXSP,2013-10-22 00:25:00,
2013-10-21 17:35:00,66.6,24.2,29.98,NW,315,1.6,1.6,20,0.00,,,0.00,WUHU21623XXSP,2013-10-22 00:35:00,
2013-10-21 17:40:00,66.4,24.1,29.98,NNW,337,3.1,3.1,20,0.00,,,0.00,WUHU21623XXSP,2013-10-22 00:40:00,
2013-10-21 17:45:00,66.0,23.8,29.98,NNW,337,0.0,3.1,20,0.00,,,0.00,WUHU21623XXSP,2013-10-22 00:45:00,
2013-10-21 17:52:00,66.0,23.8,29.99,NNE,22,3.8,3.8,20,0.00,,,0.00,WUHU21623XXSP,2013-10-22 00:52:00,
2013-10-21 17:57:00,65.7,23.6,29.98,NNE,22,1.6,3.8,20,0.00,,,0.00,WUHU21623XXSP,2013-10-22 00:57:00,
2013-10-21 18:02:00,65.7,23.5,29.99,NNW,337,2.0,2.0,20,0.00,,,0.00,WUHU21623XXSP,2013-10-22 01:02:00,
2013-10-21 18:07:00,65.1,23.2,29.99,NNW,337,3.4,3.6,20,0.00,,,0.00,WUHU21623XXSP,2013-10-22 01:07:00,
2013-10-21 18:12:00,65.1,23.0,29.99,NNW,337,2.0,3.6,20,0.00,,,0.00,WUHU21623XXSP,2013-10-22 01:12:00,
2013-10-21 18:18:00,64.8,22.7,29.98,NNW,337,4.7,4.7,20,0.00,,,0.00,WUHU21623XXSP,2013-10-22 01:18:00,
2013-10-21 18:24:00,64.2,22.3,29.99,North,0,0.0,4.7,20,0.00,,,0.00,WUHU21623XXSP,2013-10-22 01:24:00,
2013-10-21 18:30:00,64.0,23.1,29.99,North,0,2.9,2.9,21,0.00,,,0.00,WUHU21623XXSP,2013-10-22 01:30:00,
2013-10-21 18:35:00,64.0,23.1,30.00,WNW,292,0.0,2.9,21,0.00,,,0.00,WUHU21623XXSP,2013-10-22 01:35:00,
2013-10-21 18:43:00,63.1,22.4,30.00,WNW,292,4.0,4.0,21,0.00,,,0.00,WUHU21623XXSP,2013-10-22 01:43:00,
2013-10-21 18:48:00,62.6,22.3,30.00,WNW,292,2.7,4.0,21,0.00,,,0.00,WUHU21623XXSP,2013-10-22 01:48:00,
2013-10-21 18:56:00,61.5,22.1,30.00,NNW,337,3.6,3.6,23,0.00,,,0.00,WUHU21623XXSP,2013-10-22 01:56:00,
2013-10-21 19:01:00,61.2,22.7,30.00,WNW,292,3.1,3.6,23,0.00,,,0.00,WUHU21623XXSP,2013-10-22 02:01:00,
2013-10-21 19:06:00,60.6,22.3,30.01,WNW,292,2.5,3.1,23,0.00,,,0.00,WUHU21623XXSP,2013-10-22 02:06:00,
2013-10-21 19:11:00,60.1,21.8,30.00,West,270,0.7,2.5,23,0.00,,,0.00,WUHU21623XXSP,2013-10-22 02:11:00,
2013-10-21 19:18:00,59.5,22.3,30.01,WNW,292,1.1,1.1,24,0.00,,,0.00,WUHU21623XXSP,2013-10-22 02:18:00,
2013-10-21 19:23:00,59.2,22.0,30.01,NW,315,2.2,2.2,24,0.00,,,0.00,WUHU21623XXSP,2013-10-22 02:23:00,
2013-10-21 19:28:00,58.8,21.7,30.01,NNW,337,2.0,2.2,24,0.00,,,0.00,WUHU21623XXSP,2013-10-22 02:28:00,
2013-10-21 19:35:00,58.3,22.4,30.01,North,0,2.5,2.5,25,0.00,,,0.00,WUHU21623XXSP,2013-10-22 02:35:00,
2013-10-21 19:40:00,58.3,22.2,30.01,West,270,1.3,2.5,25,0.00,,,0.00,WUHU21623XXSP,2013-10-22 02:40:00,
2013-10-21 19:52:00,57.9,21.9,30.02,SE,135,0.0,0.0,25,0.00,,,0.00,WUHU21623XXSP,2013-10-22 02:52:00,
2013-10-21 19:57:00,57.7,21.7,30.02,WNW,292,0.0,0.0,25,0.00,,,0.00,WUHU21623XXSP,2013-10-22 02:57:00,
2013-10-21 20:02:00,57.0,22.1,30.03,NNE,22,0.0,0.0,25,0.00,,,0.00,WUHU21623XXSP,2013-10-22 03:02:00,
2013-10-21 20:07:00,56.5,21.6,30.03,NE,45,0.0,0.0,26,0.00,,,0.00,WUHU21623XXSP,2013-10-22 03:07:00,
2013-10-21 20:12:00,55.9,21.1,30.03,North,0,0.0,0.0,26,0.00,,,0.00,WUHU21623XXSP,2013-10-22 03:12:00,
2013-10-21 20:17:00,55.6,20.8,30.03,North,0,0.0,0.0,26,0.00,,,0.00,WUHU21623XXSP,2013-10-22 03:17:00,
2013-10-21 20:23:00,55.0,20.4,30.03,NW,315,0.0,0.0,26,0.00,,,0.00,WUHU21623XXSP,2013-10-22 03:23:00,
2013-10-21 20:30:00,53.8,20.3,30.03,ENE,67,0.0,0.0,27,0.00,,,0.00,WUHU21623XXSP,2013-10-22 03:30:00,
2013-10-21 20:37:00,52.9,19.8,30.03,East,90,0.0,0.0,27,0.00,,,0.00,WUHU21623XXSP,2013-10-22 03:37:00,
2013-10-21 20:42:00,52.7,19.3,30.03,ESE,112,0.0,0.0,27,0.00,,,0.00,WUHU21623XXSP,2013-10-22 03:42:00,
2013-10-21 20:47:00,52.3,19.0,30.04,East,90,0.0,0.0,27,0.00,,,0.00,WUHU21623XXSP,2013-10-22 03:47:00,
2013-10-21 20:52:00,51.6,19.3,30.04,ENE,67,0.0,0.0,28,0.00,,,0.00,WUHU21623XXSP,2013-10-22 03:52:00,
2013-10-21 20:57:00,51.1,18.9,30.04,NE,45,0.0,0.0,28,0.00,,,0.00,WUHU21623XXSP,2013-10-22 03:57:00,
2013-10-21 21:02:00,50.4,18.4,30.04,ENE,67,0.0,0.0,28,0.00,,,0.00,WUHU21623XXSP,2013-10-22 04:02:00,
2013-10-21 21:03:00,50.4,18.4,30.04,ENE,67,0.0,0.0,28,0.00,,,0.00,WUHU21623XXSP,2013-10-22 04:03:00,
2013-10-21 21:04:00,50.4,18.4,30.04,ENE,67,0.0,0.0,28,0.00,,,0.00,WUHU21623XXSP,2013-10-22 04:04:00,
2013-10-21 21:09:00,49.8,18.1,30.04,East,90,0.0,0.0,28,0.00,,,0.00,WUHU21623XXSP,2013-10-22 04:09:00,
2013-10-21 21:14:00,49.8,18.7,30.04,East,90,0.0,0.0,29,0.00,,,0.00,WUHU21623XXSP,2013-10-22 04:14:00,
2013-10-21 21:19:00,49.3,18.2,30.04,ENE,67,0.0,0.0,29,0.00,,,0.00,WUHU21623XXSP,2013-10-22 04:19:00,
2013-10-21 21:24:00,48.9,18.2,30.04,East,90,0.0,0.0,29,0.00,,,0.00,WUHU21623XXSP,2013-10-22 04:24:00,
2013-10-21 21:30:00,48.6,17.7,30.05,East,90,0.0,0.0,29,0.00,,,0.00,WUHU21623XXSP,2013-10-22 04:30:00,
2013-10-21 21:35:00,48.4,17.7,30.05,East,90,0.0,0.0,29,0.00,,,0.00,WUHU21623XXSP,2013-10-22 04:35:00,
2013-10-21 21:41:00,48.0,17.2,30.05,East,90,0.0,0.0,29,0.00,,,0.00,WUHU21623XXSP,2013-10-22 04:41:00,
2013-10-21 21:46:00,47.7,17.8,30.05,SE,135,0.0,0.0,30,0.00,,,0.00,WUHU21623XXSP,2013-10-22 04:46:00,
2013-10-21 21:51:00,47.3,17.5,30.05,SE,135,0.0,0.0,30,0.00,,,0.00,WUHU21623XXSP,2013-10-22 04:51:00,
2013-10-21 21:56:00,47.1,17.3,30.05,SE,135,0.0,0.0,30,0.00,,,0.00,WUHU21623XXSP,2013-10-22 04:56:00,
2013-10-21 22:01:00,46.6,16.9,30.05,SSE,157,0.0,0.0,30,0.00,,,0.00,WUHU21623XXSP,2013-10-22 05:01:00,
2013-10-21 22:06:00,46.2,16.5,30.05,SW,225,0.0,0.0,30,0.00,,,0.00,WUHU21623XXSP,2013-10-22 05:06:00,
2013-10-21 22:11:00,46.0,17.0,30.05,SSW,202,0.0,0.0,31,0.00,,,0.00,WUHU21623XXSP,2013-10-22 05:11:00,
2013-10-21 22:17:00,45.7,16.7,30.06,SSW,202,0.0,0.0,31,0.00,,,0.00,WUHU21623XXSP,2013-10-22 05:17:00,
2013-10-21 22:24:00,45.1,16.2,30.06,SSW,202,0.0,0.0,31,0.00,,,0.00,WUHU21623XXSP,2013-10-22 05:24:00,
2013-10-21 22:29:00,45.0,16.7,30.06,South,180,0.0,0.0,32,0.00,,,0.00,WUHU21623XXSP,2013-10-22 05:29:00,
2013-10-21 22:34:00,44.8,16.6,30.06,West,270,0.0,0.0,32,0.00,,,0.00,WUHU21623XXSP,2013-10-22 05:34:00,
2013-10-21 22:39:00,44.4,16.9,30.06,ENE,67,0.0,0.0,33,0.00,,,0.00,WUHU21623XXSP,2013-10-22 05:39:00,
2013-10-21 22:44:00,44.1,16.6,30.06,ENE,67,0.0,0.0,33,0.00,,,0.00,WUHU21623XXSP,2013-10-22 05:44:00,
2013-10-21 22:54:00,43.2,16.4,30.06,SE,135,0.0,0.0,34,0.00,,,0.00,WUHU21623XXSP,2013-10-22 05:54:00,
2013-10-21 23:02:00,42.6,16.0,30.07,ESE,112,0.0,0.0,34,0.00,,,0.00,WUHU21623XXSP,2013-10-22 06:02:00,
2013-10-21 23:07:00,42.4,15.8,30.06,ENE,67,0.0,0.0,34,0.00,,,0.00,WUHU21623XXSP,2013-10-22 06:07:00,
2013-10-21 23:19:00,41.7,15.9,30.06,ENE,67,0.0,0.0,35,0.00,,,0.00,WUHU21623XXSP,2013-10-22 06:19:00,
2013-10-21 23:24:00,41.5,15.7,30.06,ENE,67,0.0,0.0,35,0.00,,,0.00,WUHU21623XXSP,2013-10-22 06:24:00,
2013-10-21 23:30:00,41.0,15.4,30.06,NE,45,0.0,0.0,35,0.00,,,0.00,WUHU21623XXSP,2013-10-22 06:30:00,
2013-10-21 23:35:00,40.8,15.1,30.06,East,90,0.0,0.0,35,0.00,,,0.00,WUHU21623XXSP,2013-10-22 06:35:00,
2013-10-21 23:40:00,40.8,15.7,30.06,ENE,67,0.0,0.0,36,0.00,,,0.00,WUHU21623XXSP,2013-10-22 06:40:00,
2013-10-21 23:45:00,40.3,15.4,30.07,SSE,157,0.0,0.0,36,0.00,,,0.00,WUHU21623XXSP,2013-10-22 06:45:00,
2013-10-21 23:50:00,40.3,15.3,30.07,SSE,157,0.0,0.0,36,0.00,,,0.00,WUHU21623XXSP,2013-10-22 06:50:00,
2013-10-21 23:55:00,39.9,14.9,30.06,South,180,0.0,0.0,36,0.00,,,0.00,WUHU21623XXSP,2013-10-22 06:55:00,